K7OLI-13 Weather Reports


time (UTC)temp
C
wind
direction
speed
KPH
gust
KPH
rain 1hr
cm
rain 24hr
cm
rain mn
cm
humidity
%
barometer
mb
20260906190542 14 172 4.8 8.0 0.10 0.56 0.56 97
20260906185528 14 206 4.8 6.4 0.13 0.56 0.56 98
20260906184536 14 197 4.8 6.4 0.15 0.56 0.56 99
20260906183547 13 213 6.4 8.0 0.15 0.53 0.53 99
20260906182533 13 238 8.0 11.3 0.15 0.51 0.51 99
20260906181524 13 216 4.8 6.4 0.15 0.48 0.48 99
20260906180612 13 206 4.8 6.4 0.15 0.46 0.46 99
20260906175520 13 199 3.2 6.4 0.15 0.43 0.43 99
20260906174528 13 182 3.2 8.0 0.18 0.41 0.41 99
20260906173537 13 178 4.8 8.0 0.15 0.38 0.38 99
20260906172526 13 176 4.8 6.4 0.15 0.36 0.36 99
20260906171534 13 186 4.8 6.4 0.13 0.33 0.33 99
20260906170543 13 232 4.8 9.7 0.13 0.30 0.30 99
20260906165551 13 239 4.8 6.4 0.10 0.28 0.28 99
20260906164542 13 240 4.8 8.0 0.08 0.23 0.23 99
20260906163529 13 222 6.4 9.7 0.10 0.23 0.23 99
20260906162602 13 201 6.4 6.4 0.08 0.20 0.20 99
20260906161527 13 189 4.8 8.0 0.10 0.20 0.20 99
20260906160555 13 178 4.8 8.0 0.08 0.18 0.18 99
20260906155524 13 176 3.2 4.8 0.10 0.18 0.18 99
20260906154531 13 178 4.8 6.4 0.08 0.15 0.15 99
20260906153521 13 181 4.8 6.4 0.05 0.13 0.13 99
20260906152529 13 203 1.6 4.8 0.08 0.13 0.13 99
20260906151634 13 180 0.0 6.4 0.08 0.10 0.10 99
20260906150603 13 189 6.4 9.7 0.08 0.10 0.10 99
20260906145534 13 172 6.4 8.0 0.08 0.08 0.08 99
20260906144603 13 184 3.2 6.4 0.08 0.08 0.08 99
20260906143532 13 184 3.2 4.8 0.08 0.08 0.08 99
20260906142520 13 140 1.6 4.8 0.05 0.05 0.05 99
20260906141529 13 130 3.2 4.8 0.03 0.03 0.03 99
20260906140537 13 125 3.2 4.8 0.03 0.03 0.03 99
20260906135526 13 158 3.2 4.8 0.00 0.00 0.00 98
20260906134535 13 131 1.6 4.8 0.00 0.00 0.00 98
20260906133523 13 177 3.2 4.8 0.00 0.00 0.00 98
20260906132532 13 234 1.6 4.8 0.00 0.00 0.00 98
20260906131521 13 211 3.2 4.8 0.00 0.00 0.00 97
20260906130529 13 0.0 0.0 0.00 0.00 0.00 97
20260906125537 13 168 3.2 8.0 0.00 0.00 0.00 97
20260906124527 13 203 3.2 6.4 0.00 0.00 0.00 97
20260906123535 13 165 4.8 6.4 0.00 0.00 0.00 97
20260906122528 13 135 1.6 3.2 0.00 0.00 0.00 96
20260906121531 13 115 3.2 4.8 0.00 0.00 0.00 95
20260906120521 13 96 1.6 4.8 0.00 0.00 0.00 94
20260906115550 13 220 3.2 4.8 0.00 0.00 0.00 94
20260906114537 13 202 3.2 4.8 0.00 0.00 0.00 94
20260906113526 13 113 0.0 1.6 0.00 0.00 0.00 95
20260906112535 13 0.0 0.0 0.00 0.00 0.00 95
20260906111547 13 158 0.0 3.2 0.00 0.00 0.00 94
20260906110532 13 0.0 0.0 0.00 0.00 0.00 94
20260906105521 13 150 1.6 3.2 0.00 0.00 0.00 94
20260906104549 13 124 3.2 4.8 0.00 0.00 0.00 94
20260906103519 13 0.0 0.0 0.00 0.00 0.00 95
20260906102527 13 213 3.2 4.8 0.00 0.00 0.00 95
20260906101636 13 199 3.2 4.8 0.00 0.00 0.00 95
20260906100527 13 196 3.2 4.8 0.00 0.00 0.00 95
20260906095534 13 220 4.8 4.8 0.00 0.00 0.00 95
20260906094542 13 216 3.2 4.8 0.00 0.00 0.00 95
20260906093530 13 217 3.2 4.8 0.00 0.00 0.00 95
20260906092519 13 224 4.8 6.4 0.00 0.00 0.00 96
20260906091527 13 218 3.2 6.4 0.00 0.00 0.00 96
20260906090535 13 0.0 0.0 0.00 0.00 0.00 96
20260906085526 13 0.0 0.0 0.00 0.00 0.00 96
20260906084535 13 0.0 0.0 0.00 0.00 0.00 96
20260906083602 13 0.0 0.0 0.00 0.00 0.00 96
20260906082550 13 0.0 0.0 0.00 0.00 0.00 96
20260906081519 13 0.0 0.0 0.00 0.00 0.00 95
20260906080527 13 0.0 0.0 0.00 0.00 0.00 95
20260906075535 14 0.0 0.0 0.00 0.00 0.00 95
20260906074526 14 0.0 0.0 0.00 0.00 0.00 94
20260906073533 14 0.0 0.0 0.00 0.00 0.00 93
20260906072522 14 0.0 0.0 0.00 0.00 0.00 93
20260906071531 14 0.0 0.0 0.00 0.00 0.00 93
20260906070520 15 158 0.0 3.2 0.00 0.00 0.00 92
20260906065527 15 226 4.8 6.4 0.00 0.00 0.00 92
20260906064536 15 215 4.8 8.0 0.00 0.00 0.00 92
20260906063526 15 234 4.8 6.4 0.00 0.00 0.00 92
20260906062533 15 234 6.4 8.0 0.00 0.00 0.00 92
20260906061522 14 233 4.8 8.0 0.00 0.00 0.00 92
20260906060530 14 215 3.2 6.4 0.00 0.00 0.00 92
20260906055520 15 124 1.6 3.2 0.00 0.00 0.00 91
20260906054527 15 178 1.6 3.2 0.00 0.00 0.00 90
20260906053535 15 179 3.2 4.8 0.00 0.00 0.00 90
20260906052531 15 179 4.8 4.8 0.00 0.00 0.00 90
20260906051533 15 195 1.6 4.8 0.00 0.00 0.00 90
20260906050543 15 236 4.8 6.4 0.00 0.00 0.00 89
20260906045531 15 224 4.8 6.4 0.00 0.00 0.00 89
20260906044520 15 217 6.4 6.4 0.00 0.00 0.00 88
20260906043548 15 238 6.4 8.0 0.00 0.00 0.00 88
20260906042536 15 236 8.0 11.3 0.00 0.00 0.00 87
20260906041526 15 223 6.4 9.7 0.00 0.00 0.00 87
20260906040534 15 231 8.0 9.7 0.00 0.00 0.00 86
20260906035523 16 211 6.4 9.7 0.00 0.00 0.00 85
20260906034551 16 231 9.7 12.9 0.00 0.00 0.00 85
20260906033520 16 219 6.4 11.3 0.00 0.00 0.00 84
20260906032528 16 223 9.7 12.9 0.00 0.00 0.00 83
20260906031556 16 219 9.7 14.5 0.00 0.00 0.00 82
20260906030527 16 217 8.0 12.9 0.00 0.00 0.00 81
20260906025533 17 221 9.7 12.9 0.00 0.00 0.00 80
20260906024521 17 209 8.0 9.7 0.00 0.00 0.00 78
20260906023530 18 217 9.7 12.9 0.00 0.00 0.00 76
20260906022520 18 221 8.0 14.5 0.00 0.00 0.00 73
20260906021527 18 226 6.4 8.0 0.00 0.00 0.00 71
20260906020535 18 220 9.7 11.3 0.00 0.00 0.00 70
20260906015527 19 203 9.7 11.3 0.00 0.00 0.00 69
20260906014534 19 215 9.7 12.9 0.00 0.00 0.00 67
20260906013542 20 225 12.9 16.1 0.00 0.00 0.00 67
20260906012529 20 218 12.9 17.7 0.00 0.00 0.00 66
20260906011537 20 238 4.8 8.0 0.00 0.00 0.00 61
20260906010527 20 234 8.0 11.3 0.00 0.00 0.00 60
20260906005635 21 226 9.7 14.5 0.00 0.00 0.00 59
20260906004544 21 231 9.7 11.3 0.00 0.00 0.00 58
20260906003532 21 254 6.4 9.7 0.00 0.00 0.00 57
20260906002521 21 297 4.8 8.0 0.00 0.00 0.00 56
20260906001529 22 265 8.0 12.9 0.00 0.00 0.00 56
20260906000537 22 247 6.4 9.7 0.00 0.00 0.00 56
20260905235527 22 236 6.4 11.3 0.00 0.00 0.00 55
20260905234535 21 242 6.4 9.7 0.00 0.00 0.00 56
20260905233544 21 323 4.8 9.7 0.00 0.00 0.00 57
20260905232531 21 270 4.8 9.7 0.00 0.00 0.00 56
20260905231521 22 230 9.7 12.9 0.00 0.00 0.00 56
20260905230529 21 235 6.4 9.7 0.00 0.00 0.00 58
20260905225537 21 242 9.7 12.9 0.00 0.00 0.00 57
20260905224527 22 246 9.7 12.9 0.00 0.00 0.00 56
20260905223615 22 220 11.3 16.1 0.00 0.00 0.00 56
20260905222523 21 296 4.8 9.7 0.00 0.00 0.00 58
20260905221532 21 211 9.7 12.9 0.00 0.00 0.00 56
20260905220521 21 269 4.8 9.7 0.00 0.00 0.00 57
20260905215529 21 210 9.7 14.5 0.00 0.00 0.00 56
20260905214616 22 230 8.0 17.7 0.00 0.00 0.00 56
20260905213527 21 229 6.4 8.0 0.00 0.00 0.00 57
20260905212533 21 166 3.2 6.4 0.00 0.00 0.00 58
20260905211522 22 267 4.8 8.0 0.00 0.00 0.00 57
20260905210530 20 238 8.0 11.3 0.00 0.00 0.00 61
20260905205519 20 229 6.4 9.7 0.00 0.00 0.00 61
20260905204548 20 300 3.2 6.4 0.00 0.00 0.00 62
20260905203536 20 301 4.8 9.7 0.00 0.00 0.00 62
20260905202527 20 273 3.2 8.0 0.00 0.00 0.00 61
20260905201533 20 4 4.8 11.3 0.00 0.00 0.00 62
20260905200522 20 250 4.8 8.0 0.00 0.00 0.00 60
20260905195537 20 173 8.0 9.7 0.00 0.00 0.00 60
20260905194520 20 114 4.8 8.0 0.00 0.00 0.00 62
20260905193527 20 178 3.2 4.8 0.00 0.00 0.00 64
20260905192535 20 184 6.4 11.3 0.00 0.00 0.00 66
20260905191527 18 275 3.2 4.8 0.00 0.00 0.00 69